Location: Belfast
(54.5830°N, 5.9330°W)
Time: 03:16:56
(UTC+00:00)

ISS - Pass Details

Date: 26 January 2021
Orbit: 417 x 422 km, 51.6° (Epoch: 26 February)

Event Time Altitude Azimuth Distance (km) Brightness Sun altitude
Rises 19:16:16 0° 260° (W) 2,377 1.6 -20.7°
Reaches altitude 10° 19:18:24 10° 256° (WSW) 1,513 0.2 -21.0°
Enters shadow 19:21:23 49° 202° (SSW) 554 -3.1 -21.5°
